• en France
  • Liste des pays
  • À 7 jours
  • Température de l'eau
  • Carte satellitaire
  • Carte météo
  • Widgets météo
  • user-avatar
    Se connecter

    Météo par heure à Horta

    Ce jour, 22 Octobre, Lundi

    Heure Température Précipitation Vent Pression Humidité
    00:00 +6°C° 0 mm 2 m/s 591 mmHg 67%
    01:00 +6°C° 0.1 mm 2 m/s 591 mmHg 66%
    02:00 +6°C° 0.1 mm 2 m/s 591 mmHg 65%
    03:00 +7°C° 0 mm 1 m/s 591 mmHg 64%
    04:00 +7°C° 0.3 mm 1 m/s 591 mmHg 64%
    05:00 +6°C° 0.3 mm 2 m/s 591 mmHg 64%
    06:00 +6°C° 0.3 mm 2 m/s 591 mmHg 65%
    07:00 +6°C° 0.6 mm 2 m/s 591 mmHg 65%
    08:00 +7°C° 0.6 mm 2 m/s 591 mmHg 66%
    09:00 +7°C° 0.6 mm 2 m/s 592 mmHg 67%
    10:00 +8°C° 0.5 mm 2 m/s 592 mmHg 67%
    11:00 +8°C° 0.5 mm 2 m/s 592 mmHg 67%
    12:00 +9°C° 0.5 mm 2 m/s 592 mmHg 67%
    13:00 +9°C° 0.2 mm 2 m/s 592 mmHg 68%
    14:00 +10°C° 0.2 mm 1 m/s 592 mmHg 69%
    15:00 +10°C° 0.2 mm 1 m/s 592 mmHg 70%
    16:00 +9°C° 0 mm 1 m/s 592 mmHg 75%
    17:00 +8°C° 0 mm 1 m/s 591 mmHg 81%
    18:00 +6°C° 0 mm 1 m/s 591 mmHg 86%
    19:00 +6°C° 0 mm 1 m/s 591 mmHg 85%
    20:00 +6°C° 0 mm 1 m/s 591 mmHg 84%
    21:00 +5°C° 0 mm 1 m/s 591 mmHg 83%
    22:00 +5°C° 0 mm 1 m/s 591 mmHg 82%
    23:00 +5°C° 0 mm 1 m/s 591 mmHg 80%

    Demain, 23 Octobre, Mardi

    Heure Température Précipitation Vent Pression Humidité
    00:00 +5°C° 0 mm 1 m/s 591 mmHg 79%
    01:00 +5°C° 0 mm 1 m/s 591 mmHg 77%
    02:00 +4°C° 0 mm 1 m/s 590 mmHg 75%
    03:00 +3°C° 0 mm 2 m/s 590 mmHg 74%
    04:00 +3°C° 0 mm 2 m/s 590 mmHg 72%
    05:00 +3°C° 0 mm 2 m/s 590 mmHg 70%
    06:00 +3°C° 0 mm 2 m/s 590 mmHg 68%
    07:00 +6°C° 0 mm 1 m/s 591 mmHg 64%
    08:00 +7°C° 0 mm 1 m/s 592 mmHg 60%
    09:00 +9°C° 0 mm 1 m/s 593 mmHg 56%
    10:00 +10°C° 0 mm 1 m/s 593 mmHg 53%
    11:00 +10°C° 0 mm 2 m/s 593 mmHg 51%
    12:00 +10°C° 0 mm 2 m/s 593 mmHg 48%
    13:00 +10°C° 0 mm 2 m/s 593 mmHg 49%
    14:00 +10°C° 0 mm 2 m/s 592 mmHg 49%
    15:00 +10°C° 0 mm 2 m/s 592 mmHg 50%
    16:00 +8°C° 0 mm 2 m/s 591 mmHg 55%
    17:00 +7°C° 0 mm 1 m/s 590 mmHg 61%
    18:00 +6°C° 0 mm 1 m/s 589 mmHg 66%
    19:00 +5°C° 0 mm 1 m/s 589 mmHg 62%
    20:00 +5°C° 0 mm 1 m/s 589 mmHg 58%
    21:00 +4°C° 0 mm 2 m/s 589 mmHg 54%
    22:00 +4°C° 0 mm 2 m/s 589 mmHg 56%
    23:00 +4°C° 0 mm 2 m/s 589 mmHg 58%

    Après-demain, 24 Octobre, Mercredi

    Heure Température Précipitation Vent Pression Humidité
    00:00 +3°C° 0 mm 2 m/s 589 mmHg 60%
    01:00 +3°C° 0 mm 2 m/s 588 mmHg 64%
    02:00 +4°C° 0 mm 2 m/s 588 mmHg 69%
    03:00 +4°C° 0 mm 2 m/s 588 mmHg 73%
    04:00 +4°C° 0 mm 2 m/s 588 mmHg 75%
    05:00 +3°C° 0 mm 2 m/s 588 mmHg 78%
    06:00 +3°C° 0 mm 2 m/s 587 mmHg 80%
    07:00 +4°C° 0 mm 3 m/s 588 mmHg 75%
    08:00 +5°C° 0 mm 3 m/s 588 mmHg 70%
    09:00 +8°C° 0 mm 3 m/s 589 mmHg 65%
    10:00 +9°C° 0 mm 3 m/s 589 mmHg 61%
    11:00 +10°C° 0 mm 3 m/s 589 mmHg 58%
    12:00 +10°C° 0 mm 4 m/s 588 mmHg 54%
    13:00 +10°C° 0 mm 3 m/s 588 mmHg 54%
    14:00 +10°C° 0 mm 3 m/s 587 mmHg 55%
    15:00 +10°C° 0 mm 3 m/s 587 mmHg 55%
    16:00 +9°C° 0 mm 3 m/s 586 mmHg 60%
    17:00 +7°C° 0 mm 3 m/s 585 mmHg 66%
    18:00 +5°C° 0 mm 3 m/s 585 mmHg 71%
    19:00 +5°C° 0.1 mm 3 m/s 584 mmHg 72%
    20:00 +5°C° 0.1 mm 3 m/s 584 mmHg 73%
    21:00 +5°C° 0.1 mm 3 m/s 584 mmHg 74%
    22:00 +4°C° 0.2 mm 3 m/s 584 mmHg 75%
    23:00 +4°C° 0.2 mm 3 m/s 583 mmHg 76%

    25 Octobre, Jeudi

    Heure Température Précipitation Vent Pression Humidité
    00:00 +4°C° 0.2 mm 4 m/s 583 mmHg 77%
    01:00 +4°C° 0 mm 4 m/s 582 mmHg 78%
    02:00 +4°C° 0 mm 4 m/s 582 mmHg 79%
    03:00 +4°C° 0 mm 4 m/s 581 mmHg 80%
    04:00 +4°C° 0 mm 4 m/s 581 mmHg 80%
    05:00 +4°C° 0 mm 4 m/s 581 mmHg 81%
    06:00 +3°C° 0 mm 4 m/s 581 mmHg 81%
    07:00 +5°C° 0 mm 4 m/s 582 mmHg 76%
    08:00 +6°C° 0 mm 5 m/s 582 mmHg 70%
    09:00 +8°C° 0 mm 5 m/s 583 mmHg 64%
    10:00 +9°C° 0 mm 6 m/s 583 mmHg 59%
    11:00 +10°C° 0 mm 6 m/s 583 mmHg 54%
    12:00 +11°C° 0 mm 7 m/s 583 mmHg 50%
    13:00 +11°C° 0 mm 6 m/s 583 mmHg 49%
    14:00 +11°C° 0 mm 6 m/s 582 mmHg 49%
    15:00 +11°C° 0 mm 6 m/s 582 mmHg 48%
    16:00 +10°C° 0 mm 5 m/s 582 mmHg 53%
    17:00 +8°C° 0 mm 4 m/s 581 mmHg 58%
    18:00 +8°C° 0 mm 3 m/s 581 mmHg 64%
    19:00 +7°C° 0.2 mm 3 m/s 581 mmHg 67%
    20:00 +7°C° 0.2 mm 3 m/s 582 mmHg 70%
    21:00 +5°C° 0.2 mm 3 m/s 582 mmHg 73%
    22:00 +5°C° 0.3 mm 3 m/s 582 mmHg 76%
    23:00 +4°C° 0.3 mm 3 m/s 582 mmHg 80%

    26 Octobre, Vendredi

    Heure Température Précipitation Vent Pression Humidité
    00:00 +3°C° 0.3 mm 3 m/s 582 mmHg 83%
    01:00 +3°C° 0.3 mm 3 m/s 583 mmHg 83%
    02:00 +3°C° 0.3 mm 2 m/s 583 mmHg 84%
    03:00 +3°C° 0.3 mm 2 m/s 583 mmHg 84%
    04:00 +3°C° 1 mm 2 m/s 583 mmHg 86%
    05:00 +2°C° 1 mm 2 m/s 583 mmHg 88%
    06:00 +2°C° 1 mm 2 m/s 583 mmHg 90%
    07:00 +1°C° 2.6 mm 2 m/s 583 mmHg 91%
    08:00 +1°C° 2.6 mm 2 m/s 584 mmHg 92%
    09:00 -1°C° 2.6 mm 2 m/s 584 mmHg 93%
    10:00 -1°C° 1.4 mm 2 m/s 584 mmHg 92%
    11:00 +1°C° 1.4 mm 2 m/s 584 mmHg 91%
    12:00 +1°C° 1.4 mm 2 m/s 584 mmHg 90%
    13:00 +1°C° 0.3 mm 2 m/s 584 mmHg 88%
    14:00 +1°C° 0.3 mm 2 m/s 584 mmHg 86%
    15:00 +1°C° 0.3 mm 2 m/s 584 mmHg 84%
    16:00 -1°C° 0.2 mm 2 m/s 584 mmHg 85%
    17:00 -2°C° 0.2 mm 2 m/s 584 mmHg 85%
    18:00 -3°C° 0.2 mm 2 m/s 584 mmHg 85%
    19:00 -4°C° 0 mm 2 m/s 584 mmHg 82%
    20:00 -7°C° 0 mm 3 m/s 584 mmHg 78%
    21:00 -8°C° 0 mm 3 m/s 583 mmHg 75%
    22:00 -8°C° 0 mm 3 m/s 584 mmHg 74%
    23:00 -8°C° 0 mm 3 m/s 585 mmHg 72%

    27 Octobre, Samedi

    Heure Température Précipitation Vent Pression Humidité
    00:00 -7°C° 0 mm 2 m/s 585 mmHg 71%
    01:00 -6°C° 0.1 mm 2 m/s 586 mmHg 74%
    02:00 -6°C° 0.1 mm 2 m/s 587 mmHg 77%
    03:00 -5°C° 0.1 mm 2 m/s 588 mmHg 80%
    04:00 -5°C° 0.1 mm 2 m/s 588 mmHg 82%
    05:00 -5°C° 0.1 mm 2 m/s 589 mmHg 83%
    06:00 -3°C° 0.1 mm 1 m/s 590 mmHg 84%
    07:00 -2°C° 0 mm 1 m/s 591 mmHg 81%
    08:00 -1°C° 0 mm 1 m/s 592 mmHg 79%
    09:00 0°C° 0 mm 1 m/s 593 mmHg 76%
    10:00 +1°C° 0 mm 1 m/s 593 mmHg 75%
    11:00 +1°C° 0 mm 2 m/s 594 mmHg 74%
    12:00 +2°C° 0 mm 2 m/s 594 mmHg 73%
    13:00 +2°C° 0 mm 2 m/s 594 mmHg 72%
    14:00 +3°C° 0 mm 1 m/s 595 mmHg 72%
    15:00 +4°C° 0 mm 1 m/s 595 mmHg 72%
    16:00 +2°C° 0 mm 1 m/s 595 mmHg 73%
    17:00 -2°C° 0 mm 2 m/s 594 mmHg 73%
    18:00 -3°C° 0 mm 2 m/s 594 mmHg 73%
    19:00 -4°C° 0 mm 2 m/s 594 mmHg 70%
    20:00 -4°C° 0 mm 2 m/s 594 mmHg 66%
    21:00 -5°C° 0 mm 3 m/s 594 mmHg 63%
    22:00 -4°C° 0 mm 2 m/s 595 mmHg 63%
    23:00 -5°C° 0 mm 2 m/s 595 mmHg 63%

    28 Octobre, Dimanche

    Heure Température Précipitation Vent Pression Humidité
    00:00 -5°C° 0 mm 2 m/s 595 mmHg 63%
    01:00 -5°C° 0 mm 2 m/s 595 mmHg 65%
    02:00 -4°C° 0 mm 2 m/s 595 mmHg 67%
    03:00 -4°C° 0 mm 2 m/s 595 mmHg 69%
    04:00 -4°C° 0 mm 2 m/s 595 mmHg 68%
    05:00 -4°C° 0 mm 2 m/s 595 mmHg 67%
    06:00 -4°C° 0 mm 2 m/s 595 mmHg 66%
    07:00 -2°C° 0 mm 2 m/s 596 mmHg 66%
    08:00 +1°C° 0 mm 2 m/s 597 mmHg 65%
    09:00 +3°C° 0 mm 2 m/s 598 mmHg 64%
    10:00 +4°C° 0 mm 2 m/s 598 mmHg 65%
    11:00 +5°C° 0 mm 2 m/s 598 mmHg 67%
    12:00 +6°C° 0 mm 2 m/s 598 mmHg 69%
    13:00 +7°C° 0 mm 1 m/s 598 mmHg 68%
    14:00 +7°C° 0 mm 1 m/s 598 mmHg 67%
    15:00 +7°C° 0 mm 1 m/s 598 mmHg 67%
    16:00 +5°C° 0 mm 1 m/s 597 mmHg 65%
    17:00 +3°C° 0 mm 2 m/s 596 mmHg 63%
    18:00 +1°C° 0 mm 2 m/s 596 mmHg 61%
    19:00 +1°C° 0 mm 2 m/s 596 mmHg 58%
    20:00 +1°C° 0 mm 2 m/s 596 mmHg 54%
    21:00 +1°C° 0 mm 2 m/s 596 mmHg 51%
    22:00 +1°C° 0 mm 2 m/s 596 mmHg 51%
    23:00 +1°C° 0 mm 2 m/s 596 mmHg 50%
    Voir plus